sat.trackr.live / text

‹ back to catalog

O3B MPOWER F2

NORAD 54756 · 2022-174B

PAYLOAD ACTIVE UNKNOWN

§ Identity

Operator
Country
O3B
Launch date
2022-12-16
Launch site
AFETR
Launch vehicle
Mass (kg)
RCS (m²)

Purposes: comms

External: N2YO · Heavens-Above · Gunter

§ Orbital elements

Epoch: 2026-09-19T11:00:13.664736Z

Period
287.93 min
Inclination
0.0397°
Eccentricity
0.0005498
Mean motion
5.00118963 rev/d
Perigee alt
8,057.9 km
Apogee alt
8,073.8 km
Semi-major
14,444.0 km
B*
0.0000e+0
RAAN
346.5004°
Arg perigee
186.0607°
Mean anomaly
187.4492°
Rev number
7,016

§ Raw data

O3B MPOWER F21 54756U 22174B   26262.45849149 -.00000027  00000+0  00000+0 0  99932 54756   0.0397 346.5004 0005498 186.0607 187.4492  5.00118963 70166

JSON: /api/v1/satellites/54756 · /tle

For live sub-satellite position, see the globe view (requires WebGL).

§ Visibility from observer

Set your observer location to see the next 7 days of passes ≥ 10°. The values pass through the URL so the page stays shareable.

No JS? Fill the form by hand. The geolocation button needs JavaScript.